Location: Hohenfelde
(53.8441°N, 9.6220°E)
Time: 12:00:32
(UTC+00:00)

IDEFIX/ARIANE 42P - Pass Details

Date: 14 July 2020
Orbit: 784 x 804 km, 98.4° (Epoch: 09 August)

Event Time Altitude Azimuth Distance (km) Brightness Sun altitude
Rises 01:51:03 0° 21° (NNE) 3,298 7.7 -8.4°
Reaches altitude 10° 01:53:40 10° 32° (NNE) 2,361 6.8 -8.2°
Maximum altitude 01:58:16 31° 94° (E) 1,359 4.2 -7.8°
Drops below altitude 10° 02:02:49 10° 156° (SSE) 2,341 4.7 -7.4°
Sets 02:05:23 0° 166° (SSE) 3,264 5.4 -7.2°
